Weather History for KMKS - March, 2013

Change the Weather History Date:

Wednesday, March 6, 2013

  Actual Average (KCHS) Record (KCHS)
Temperature  
Mean Temperature 51 °F 56 °F  
Max Temperature 60 °F 67 °F 85 °F (1976)
Min Temperature 42 °F 45 °F 21 °F (1960)
Degree Days  
Heating Degree Days 14 10  
Month to date heating degree days 62  
Since 1 July heating degree days 1698  
Cooling Degree Days 0 1  
Month to date cooling degree days 4  
Year to date cooling degree days 11  
Growing Degree Days 1 (Base 50)    
Moisture  
Dew Point 29 °F    
Average Humidity 47    
Maximum Humidity 82    
Minimum Humidity 32    
Precipitation  
Precipitation 0.00 in 0.12 in 2.96 in (1983)
Month to date precipitation 0.69  
Year to date precipitation 7.36  
Sea Level Pressure  
Sea Level Pressure 29.87 in    
Wind  
Wind Speed 9 mph (WNW)    
Max Wind Speed 17 mph    
Max Gust Speed 28 mph    
Visibility 9 miles    
Events      
T = Trace of Precipitation, MM = Missing Value Source: NWS Daily Summary

Daily Weather History Graph

Daily Weather History Graph

Search for Another Location

Airport or City:

Trip Planner

Search our weather history database for the weather conditions in past years. The results will help you decide how hot, cold, wet, or windy it might be!

Date:

Astronomy

Mar. 06, 2013 Rise Set
Actual Time 6:41 AM EST 6:21 PM EST
Civil Twilight 6:17 AM EST 6:46 PM EST
Nautical Twilight 5:48 AM EST 7:14 PM EST
Astronomical Twilight 5:19 AM EST 7:43 PM EST
Moon 2:36 AM EST (3/6) 1:13 PM EST (3/6)
Length of Visible Light 12h 29m
Length of Day
11h 39m
Waning Crescent, 30% of the Moon is Illuminated
Mar 6
Waning Crescent
Mar 11
New
Mar 19
First Quarter
Mar 27
Full
Apr 3
Last Quarter

Hourly Weather History & Observations

Time (EST) Temp. Windchill Dew Point Humidity Pressure Visibility Wind Dir Wind Speed Gust Speed Precip Events Conditions
12:15 AM 60.8 °F - 53.6 °F 77% 29.71 in 10.0 mi WSW 13.8 mph 21.9 mph N/A   Scattered Clouds
12:35 AM 59.0 °F - 53.6 °F 82% 29.70 in 10.0 mi SW 10.4 mph - N/A   Clear
12:55 AM 59.0 °F - 53.6 °F 82% 29.70 in 10.0 mi WSW 8.1 mph 18.4 mph N/A   Scattered Clouds
1:15 AM 59.0 °F - 51.8 °F 77% 29.70 in 10.0 mi WSW 10.4 mph 17.3 mph N/A   Scattered Clouds
1:35 AM 59.0 °F - 50.0 °F 72% 29.71 in 10.0 mi West 9.2 mph 19.6 mph N/A   Mostly Cloudy
1:55 AM 55.4 °F - 42.8 °F 63% 29.72 in 10.0 mi West 10.4 mph 16.1 mph N/A   Scattered Clouds
2:15 AM 53.6 °F - 39.2 °F 58% 29.72 in 7.0 mi West 8.1 mph - N/A   Scattered Clouds
2:35 AM 51.8 °F - 37.4 °F 58% 29.74 in 10.0 mi West 8.1 mph 27.6 mph N/A   Clear
2:55 AM 50.0 °F - 35.6 °F 58% 29.74 in 7.0 mi West 10.4 mph 21.9 mph N/A   Clear
3:15 AM 50.0 °F - 37.4 °F 62% 29.74 in 10.0 mi West 9.2 mph 18.4 mph N/A   Mostly Cloudy
3:35 AM 48.2 °F - 33.8 °F 58% 29.75 in 10.0 mi West 11.5 mph 24.2 mph N/A   Overcast
3:55 AM 48.2 °F - 32.0 °F 54% 29.76 in 10.0 mi WNW 8.1 mph 18.4 mph N/A   Overcast
4:15 AM 46.4 °F 43.5 °F 32.0 °F 57% 29.77 in 7.0 mi WNW 5.8 mph 19.6 mph N/A   Overcast
4:35 AM 44.6 °F 38.4 °F 28.4 °F 53% 29.79 in 7.0 mi West 12.7 mph 26.5 mph N/A   Overcast
4:55 AM 44.6 °F 38.4 °F 26.6 °F 49% 29.79 in 10.0 mi West 12.7 mph 23.0 mph N/A   Scattered Clouds
5:15 AM 44.6 °F 39.7 °F 26.6 °F 49% 29.79 in 10.0 mi West 9.2 mph 19.6 mph N/A   Clear
5:35 AM 42.8 °F 36.2 °F 24.8 °F 49% 29.79 in 10.0 mi West 12.7 mph 18.4 mph N/A   Clear
5:55 AM 42.8 °F 38.6 °F 24.8 °F 49% 29.79 in 10.0 mi WSW 6.9 mph 23.0 mph N/A   Clear
6:15 AM 42.8 °F 38.6 °F 24.8 °F 49% 29.80 in 10.0 mi West 6.9 mph - N/A   Clear
6:35 AM 42.8 °F 39.3 °F 24.8 °F 49% 29.80 in 10.0 mi West 5.8 mph - N/A   Clear
7:15 AM 42.8 °F 38.6 °F 26.6 °F 53% 29.82 in 7.0 mi West 6.9 mph - N/A   Clear
7:35 AM 42.8 °F 38.0 °F 24.8 °F 49% 29.82 in 7.0 mi West 8.1 mph 20.7 mph N/A   Clear
7:55 AM 42.8 °F 38.6 °F 24.8 °F 49% 29.83 in 7.0 mi WNW 6.9 mph 19.6 mph N/A   Clear
8:15 AM 44.6 °F 39.7 °F 26.6 °F 49% 29.84 in 10.0 mi West 9.2 mph - N/A   Scattered Clouds
8:35 AM 44.6 °F 40.7 °F 23.0 °F 43% 29.84 in 7.0 mi West 6.9 mph - N/A   Mostly Cloudy
9:15 AM 44.6 °F 37.2 °F 23.0 °F 43% 29.86 in 7.0 mi West 17.3 mph 25.3 mph N/A   Scattered Clouds
9:35 AM 46.4 °F 42.9 °F 23.0 °F 40% 29.86 in 7.0 mi West 6.9 mph 23.0 mph N/A   Clear
9:55 AM 46.4 °F 41.9 °F 23.0 °F 40% 29.86 in 5.0 mi West 9.2 mph 16.1 mph N/A   Haze
10:15 AM 46.4 °F 41.9 °F 23.0 °F 40% 29.87 in 7.0 mi WNW 9.2 mph 26.5 mph N/A   Clear
10:35 AM 48.2 °F - 21.2 °F 34% 29.87 in 10.0 mi WNW 8.1 mph 18.4 mph N/A   Clear
10:55 AM 48.2 °F - 21.2 °F 34% 29.88 in 10.0 mi WNW 11.5 mph 24.2 mph N/A   Clear
11:15 AM 48.2 °F - 23.0 °F 37% 29.88 in 10.0 mi West 11.5 mph 19.6 mph N/A   Clear
11:35 AM 48.2 °F - 21.2 °F 34% 29.88 in 10.0 mi NW 12.7 mph 25.3 mph N/A   Clear
11:55 AM 50.0 °F - 21.2 °F 32% 29.88 in 7.0 mi West 10.4 mph 20.7 mph N/A   Clear
12:15 PM 50.0 °F - 23.0 °F 35% 29.87 in 7.0 mi NW 8.1 mph 18.4 mph N/A   Clear
12:35 PM 50.0 °F - 23.0 °F 35% 29.87 in 7.0 mi West 6.9 mph 23.0 mph N/A   Clear
12:55 PM 51.8 °F - 24.8 °F 35% 29.87 in 10.0 mi WNW 9.2 mph 18.4 mph N/A   Scattered Clouds
1:15 PM 51.8 °F - 23.0 °F 33% 29.86 in 10.0 mi NW 10.4 mph 24.2 mph N/A   Scattered Clouds
1:35 PM 51.8 °F - 24.8 °F 35% 29.85 in 7.0 mi WNW 10.4 mph 21.9 mph N/A   Clear
2:15 PM 51.8 °F - 24.8 °F 35% 29.85 in 7.0 mi WNW 13.8 mph 27.6 mph N/A   Clear
2:35 PM 51.8 °F - 24.8 °F 35% 29.85 in 10.0 mi NW 10.4 mph 20.7 mph N/A   Clear
2:55 PM 53.6 °F - 24.8 °F 33% 29.86 in 10.0 mi West 10.4 mph 18.4 mph N/A   Clear
3:15 PM 53.6 °F - 24.8 °F 33% 29.85 in 10.0 mi NW 8.1 mph 17.3 mph N/A   Clear
3:35 PM 53.6 °F - 26.6 °F 35% 29.86 in 10.0 mi NW 6.9 mph 19.6 mph N/A   Clear
3:55 PM 53.6 °F - 24.8 °F 33% 29.86 in 10.0 mi West 8.1 mph 17.3 mph N/A   Clear
4:15 PM 53.6 °F - 24.8 °F 33% 29.87 in 7.0 mi NW 10.4 mph 19.6 mph N/A   Clear
4:35 PM 53.6 °F - 26.6 °F 35% 29.87 in 10.0 mi NW 9.2 mph - N/A   Clear
4:55 PM 53.6 °F - 26.6 °F 35% 29.88 in 10.0 mi NW 6.9 mph 21.9 mph N/A   Clear
5:15 PM 53.6 °F - 26.6 °F 35% 29.89 in 7.0 mi NW 8.1 mph 18.4 mph N/A   Clear
5:35 PM 53.6 °F - 24.8 °F 33% 29.90 in 7.0 mi NW 9.2 mph 18.4 mph N/A   Clear
6:15 PM 51.8 °F - 26.6 °F 38% 29.93 in 7.0 mi NW 6.9 mph - N/A   Clear
6:35 PM 51.8 °F - 26.6 °F 38% 29.94 in 7.0 mi NW 5.8 mph - N/A   Clear
6:55 PM 50.0 °F - 26.6 °F 40% 29.96 in 10.0 mi WNW 6.9 mph - N/A   Clear
7:15 PM 50.0 °F - 26.6 °F 40% 29.97 in 7.0 mi NW 8.1 mph - N/A   Clear
7:35 PM 50.0 °F - 26.6 °F 40% 29.99 in 10.0 mi NNW 4.6 mph - N/A   Clear
7:55 PM 48.2 °F - 28.4 °F 46% 30.00 in 7.0 mi NW 4.6 mph - N/A   Clear
8:15 PM 48.2 °F - 28.4 °F 46% 30.02 in 10.0 mi NNW 5.8 mph - N/A   Clear
8:35 PM 50.0 °F - 28.4 °F 43% 30.02 in 10.0 mi NNW 6.9 mph 18.4 mph N/A   Clear
8:55 PM 48.2 °F - 28.4 °F 46% 30.03 in 7.0 mi NNW 8.1 mph 17.3 mph N/A   Clear
9:15 PM 48.2 °F - 28.4 °F 46% 30.04 in 10.0 mi NW 4.6 mph - N/A   Clear
9:35 PM 48.2 °F - 28.4 °F 46% 30.05 in 7.0 mi NNW 6.9 mph - N/A   Clear
9:55 PM 48.2 °F - 30.2 °F 50% 30.05 in 10.0 mi NNW 5.8 mph - N/A   Clear
10:15 PM 46.4 °F 45.2 °F 30.2 °F 53% 30.05 in 5.0 mi NNW 3.5 mph - N/A   Haze
10:35 PM 46.4 °F 44.3 °F 30.2 °F 53% 30.07 in 10.0 mi WNW 4.6 mph - N/A   Clear
10:55 PM 44.6 °F - 28.4 °F 53% 30.07 in 10.0 mi Calm Calm - N/A   Clear
11:15 PM 44.6 °F - 28.4 °F 53% 30.08 in 7.0 mi Calm Calm - N/A   Clear
11:35 PM 44.6 °F - 30.2 °F 57% 30.08 in 10.0 mi Calm Calm - N/A   Clear
11:55 PM 44.6 °F 41.4 °F 30.2 °F 57% 30.09 in 10.0 mi NNW 5.8 mph - N/A   Clear